CDT,Max TemperatureF,Mean TemperatureF,Min TemperatureF,Max Dew PointF,MeanDew PointF,Min DewpointF,Max Humidity, Mean Humidity, Min Humidity, Max Sea Level PressureIn, Mean Sea Level PressureIn, Min Sea Level PressureIn, Max VisibilityMiles, Mean VisibilityMiles, Min VisibilityMiles, Max Wind SpeedMPH, Mean Wind SpeedMPH, Max Gust SpeedMPH,PrecipitationIn, CloudCover, Events, WindDirDegrees
2013-7-1,82,70,58,59,53,46,87,59,30,30.09,30.05,30.01,10,10,10,21,8,28,0.00,1,,8
2013-7-2,83,69,55,56,51,48,86,59,31,30.12,30.07,30.04,10,10,10,16,4,28,0.00,0,,20
2013-7-3,85,70,55,57,54,52,86,59,32,30.10,30.04,29.98,10,10,10,9,4,,0.00,1,,174
2013-7-4,88,74,59,61,56,54,87,59,31,30.03,29.98,29.92,10,10,10,15,7,18,0.00,1,,142
2013-7-5,91,77,62,62,60,57,84,59,34,29.99,29.94,29.88,10,10,7,17,9,22,0.00,0,,162
2013-7-6,85,76,67,66,63,60,76,62,48,29.97,29.92,29.90,10,9,7,20,9,25,T,2,Rain,153
2013-7-7,93,82,70,67,64,61,79,59,38,29.99,29.95,29.91,10,10,10,20,10,25,0.00,1,,177
2013-7-8,95,84,72,70,67,64,79,59,39,30.04,30.00,29.96,10,10,10,18,10,24,0.00,0,,182
2013-7-9,100,88,76,71,70,68,82,60,37,30.00,29.94,29.85,10,10,10,21,12,30,0.00,0,,183
2013-7-10,99,87,75,73,68,64,71,52,33,30.01,29.96,29.90,10,10,3,20,6,26,T,1,Rain-Thunderstorm,67
2013-7-11,93,83,72,66,63,59,73,54,34,30.03,29.98,29.92,10,10,10,15,8,18,0.00,0,,78
2013-7-12,97,84,71,69,65,60,73,57,40,30.00,29.96,29.91,10,10,10,14,10,18,0.00,0,,118
2013-7-13,97,84,70,67,63,59,73,56,39,30.00,29.96,29.91,10,10,10,15,8,21,T,0,Rain,130
2013-7-14,91,80,68,63,59,47,78,51,24,30.05,29.99,29.95,10,10,10,20,9,24,T,2,Rain,106
2013-7-15,91,80,69,69,64,59,90,64,38,30.16,30.10,30.05,10,10,8,20,6,29,0.13,1,Rain,113
2013-7-16,93,81,68,74,69,64,97,69,41,30.25,30.21,30.16,10,8,0,32,3,46,0.36,4,Rain-Thunderstorm,178
2013-7-17,94,82,70,71,67,62,93,65,36,30.30,30.24,30.17,10,10,9,13,4,16,0.00,1,,143
2013-7-18,95,81,67,69,66,64,90,65,39,30.19,30.10,30.00,10,10,10,16,5,21,0.00,0,,209
2013-7-19,98,83,68,68,65,62,87,59,31,30.01,29.94,29.86,10,10,10,15,6,20,0.00,1,,220
2013-7-20,96,84,71,73,68,64,90,66,41,29.94,29.88,29.82,10,10,2,21,6,26,0.20,3,Rain-Thunderstorm,188
2013-7-21,85,77,69,72,69,67,97,79,61,29.93,29.87,29.81,10,10,6,15,8,21,0.19,4,Rain,188
2013-7-22,91,82,73,73,70,64,93,70,47,29.88,29.81,29.75,10,10,6,22,10,28,0.03,2,,166
2013-7-23,98,85,71,74,71,66,94,66,38,29.89,29.83,29.77,10,10,4,15,7,30,T,1,Rain-Thunderstorm,65
2013-7-24,92,80,68,70,64,55,87,60,32,30.01,29.95,29.84,10,10,10,17,7,24,0.00,3,,46
2013-7-25,88,76,63,68,63,59,90,67,43,30.08,30.03,29.99,10,10,10,13,5,16,0.00,0,,132
2013-7-26,85,77,68,70,68,66,97,76,55,30.05,30.01,29.95,10,8,1,17,4,24,0.76,6,Rain-Thunderstorm,66
2013-7-27,79,69,59,61,55,50,84,62,39,30.10,30.04,29.99,10,10,10,12,5,28,0.00,1,,19
2013-7-28,66,65,63,62,60,57,93,86,78,30.07,30.04,30.01,10,10,4,10,3,14,0.39,6,Rain,106
2013-7-29,84,75,65,73,69,62,93,81,69,30.04,29.99,29.91,10,6,0,23,9,26,6.97,7,Fog-Rain-Thunderstorm,85
2013-7-30,85,78,71,73,71,69,100,85,69,30.04,29.99,29.93,10,10,10,13,4,16,T,7,Rain,195
2013-7-31,88,79,70,72,69,64,93,70,46,30.13,30.07,30.01,10,8,3,13,5,16,0.00,4,,5